{"data":{"norad_id":56296,"intl_designator":"2023-056L","name":"STARLINK-30089","alt_names":[],"object_type":"PAYLOAD","status":"ACTIVE","operator":null,"country":"US","launch_date":"2023-04-19","launch_site_code":"AFETR","launch_vehicle":null,"mission":null,"orbit_class":"UNKNOWN","rcs_meters":null,"size_class":null,"mass_kg":null,"dimensions":null,"purposes":["comms"],"wikipedia_slug":null,"has_3d_model":false,"image_url":null,"decayed_at":null,"tle_current":{"epoch":"2026-05-24T23:24:28.219104Z","epoch_age_seconds":73861,"freshness":"FRESH","line1":"1 56296U 23056L   26144.97532661  .00000305  00000+0  20627-4 0  9998","line2":"2 56296  43.0021  98.3119 0001324 268.0437  92.0263 15.27573284172164","mean_motion":15.27573284,"eccentricity":0.0001324,"inclination_deg":43.0021,"raan_deg":98.3119,"arg_perigee_deg":268.0437,"mean_anomaly_deg":92.0263,"bstar":2.0627e-5,"rev_number":17216,"period_min":94.267163158897,"perigee_km":482.16078253169,"apogee_km":483.97762993511,"semimajor_km":6861.2062062334,"source":"CELESTRAK","updated_at":"2026-05-25T13:38:17.966086Z"}}}